Weather History for Cairo, IL

Change the Weather History Date:

Friday, December 27, 2013

  Actual Average Record
Temperature  
Mean Temperature 39 °F -  
Max Temperature 52 °F 42 °F 73 °F (2008)
Min Temperature 26 °F 29 °F 15 °F (1950)
Degree Days  
Heating Degree Days 26    
Moisture  
Dew Point 31 °F    
Average Humidity 76    
Maximum Humidity 92    
Minimum Humidity 52    
Precipitation  
Precipitation 0.00 in - - ()
Sea Level Pressure  
Sea Level Pressure 30.39 in    
Wind  
Wind Speed 2 mph (SSW)    
Max Wind Speed 9 mph    
Max Gust Speed -    
Visibility 8 miles    
Events      
Averages and records for this station are not official NWS values.
T = Trace of Precipitation, MM = Missing Value Source: NWS Daily Summary

Daily Weather History Graph

Daily Weather History Graph

Search for Another Location

Airport:

Trip Planner

Search our weather history database for the weather conditions in past years. The results will help you decide how hot, cold, wet, or windy it might be!

Date:

Astronomy

Dec. 27, 2013 Rise Set
Actual Time 7:09 AM CST 4:47 PM CST
Civil Twilight 6:40 AM CST 5:16 PM CST
Nautical Twilight 6:07 AM CST 5:48 PM CST
Astronomical Twilight 5:35 AM CST 6:20 PM CST
Moon 1:45 AM CST (12/27) 12:53 PM CST (12/27)
Length of Visible Light 10h 36m
Length of Day
9h 37m
Waning Crescent, 28% of the Moon is Illuminated
Dec 27
Waning Crescent
Jan 1
New
Jan 7
First Quarter
Jan 15
Full
Jan 23
Last Quarter

Hourly Weather History & Observations

Time (CST) Temp. Windchill Dew Point Humidity Pressure Visibility Wind Dir Wind Speed Gust Speed Precip Events Conditions
12:15 AM 28.9 °F - 24.6 °F 84% 30.40 in 7.0 mi Calm Calm - N/A   Clear
12:35 AM 29.5 °F - 25.7 °F 86% 30.40 in 7.0 mi Calm Calm - N/A   Clear
12:55 AM 30.4 °F - 26.8 °F 86% 30.40 in 7.0 mi Calm Calm - N/A   Clear
1:15 AM 28.0 °F - 24.6 °F 87% 30.40 in 4.0 mi Calm Calm - N/A   Clear
1:35 AM 28.4 °F - 25.2 °F 88% 30.40 in 4.0 mi Calm Calm - N/A   Clear
1:55 AM 29.3 °F - 26.1 °F 88% 30.40 in 2.5 mi Calm Calm - N/A   Clear
2:15 AM 27.0 °F - 23.9 °F 88% 30.40 in 5.0 mi Calm Calm - N/A   Clear
2:35 AM 29.3 °F - 26.2 °F 88% 30.40 in 4.0 mi Calm Calm - N/A   Clear
2:55 AM 28.4 °F - 25.5 °F 89% 30.40 in 5.0 mi Calm Calm - N/A   Clear
3:15 AM 27.3 °F - 24.4 °F 89% 30.40 in 5.0 mi Calm Calm - N/A   Clear
3:35 AM 27.7 °F 23.8 °F 24.8 °F 89% 30.39 in 4.0 mi SSW 3.5 mph - N/A   Clear
3:55 AM 27.5 °F - 24.6 °F 89% 30.39 in 5.0 mi Calm Calm - N/A   Clear
4:15 AM 30.2 °F - 27.3 °F 89% 30.39 in 5.0 mi Calm Calm - N/A   Clear
4:35 AM 27.3 °F - 24.6 °F 90% 30.39 in 5.0 mi Calm Calm - N/A   Clear
4:55 AM 26.8 °F - 24.1 °F 90% 30.39 in 5.0 mi Calm Calm - N/A   Clear
5:15 AM 27.9 °F - 25.2 °F 90% 30.40 in 4.0 mi Calm Calm - N/A   Clear
5:35 AM 26.4 °F - 23.7 °F 90% 30.40 in 5.0 mi Calm Calm - N/A   Clear
5:55 AM 27.1 °F - 24.4 °F 90% 30.40 in 4.0 mi Calm Calm - N/A   Clear
6:15 AM 28.2 °F - 25.5 °F 90% 30.41 in 4.0 mi Calm Calm - N/A   Clear
6:35 AM 30.2 °F - 27.7 °F 90% 30.41 in 4.0 mi Calm Calm - N/A   Clear
6:55 AM 26.6 °F - 24.1 °F 90% 30.42 in 4.0 mi Calm Calm - N/A   Clear
7:15 AM 27.3 °F - 24.8 °F 90% 30.42 in 2.5 mi Calm Calm - N/A   Clear
7:35 AM 29.3 °F 25.6 °F 26.8 °F 90% 30.42 in 3.0 mi South 3.5 mph - N/A   Clear
7:55 AM 30.2 °F - 27.7 °F 90% 30.42 in 5.0 mi Calm Calm - N/A   Clear
8:15 AM 33.3 °F - 31.1 °F 92% 30.42 in 7.0 mi Calm Calm - N/A   Clear
8:35 AM 35.2 °F 32.4 °F 32.4 °F 89% 30.43 in 7.0 mi South 3.5 mph - N/A   Clear
8:55 AM 36.5 °F 31.8 °F 33.3 °F 88% 30.44 in 10.0 mi South 5.8 mph - N/A   Clear
9:15 AM 37.6 °F 33.1 °F 33.8 °F 86% 30.44 in 10.0 mi South 5.8 mph - N/A   Clear
9:35 AM 38.5 °F 35.0 °F 34.0 °F 84% 30.46 in 10.0 mi South 4.6 mph - N/A   Clear
9:55 AM 40.3 °F 37.1 °F 34.9 °F 81% 30.46 in 10.0 mi South 4.6 mph - N/A   Clear
10:15 AM 41.9 °F 40.0 °F 35.1 °F 77% 30.46 in 10.0 mi SSW 3.5 mph - N/A   Clear
10:35 AM 42.1 °F 37.1 °F 33.8 °F 72% 30.46 in 10.0 mi SSW 8.1 mph - N/A   Clear
10:55 AM 43.2 °F 37.9 °F 34.0 °F 70% 30.45 in 10.0 mi SSW 9.2 mph - N/A   Clear
11:15 AM 44.6 °F 41.4 °F 34.3 °F 67% 30.44 in 10.0 mi SW 5.8 mph - N/A   Clear
11:35 AM 45.9 °F 42.9 °F 35.1 °F 66% 30.42 in 10.0 mi South 5.8 mph - N/A   Clear
11:55 AM 47.1 °F - 35.2 °F 63% 30.41 in 10.0 mi South 6.9 mph - N/A   Clear
12:15 PM 48.2 °F - 34.9 °F 60% 30.41 in 10.0 mi WSW 5.8 mph - N/A   Clear
12:35 PM 48.6 °F - 35.1 °F 60% 30.40 in 10.0 mi SW 6.9 mph - N/A   Clear
12:55 PM 49.6 °F - 35.4 °F 58% 30.39 in 10.0 mi SSW 4.6 mph - N/A   Clear
1:15 PM 50.0 °F - 35.2 °F 57% 30.39 in 10.0 mi SSW 6.9 mph - N/A   Clear
1:35 PM 50.9 °F - 34.9 °F 54% 30.38 in 10.0 mi SSW 6.9 mph - N/A   Clear
1:55 PM 51.3 °F - 34.9 °F 54% 30.37 in 10.0 mi SSW 5.8 mph - N/A   Clear
2:15 PM 51.8 °F - 35.8 °F 54% 30.36 in 10.0 mi South 9.2 mph - N/A   Clear
2:35 PM 52.2 °F - 36.0 °F 54% 30.36 in 10.0 mi South 8.1 mph - N/A   Clear
2:55 PM 52.3 °F - 36.0 °F 54% 30.36 in 10.0 mi SSW 6.9 mph - N/A   Clear
3:15 PM 52.2 °F - 35.8 °F 54% 30.36 in 10.0 mi South 8.1 mph - N/A   Clear
3:35 PM 51.8 °F - 34.7 °F 52% 30.35 in 10.0 mi SSW 9.2 mph - N/A   Clear
3:55 PM 50.9 °F - 34.9 °F 54% 30.35 in 10.0 mi SSW 8.1 mph - N/A   Clear
4:15 PM 49.8 °F - 35.1 °F 57% 30.35 in 10.0 mi SSW 8.1 mph - N/A   Clear
4:35 PM 48.2 °F - 35.2 °F 61% 30.35 in 10.0 mi SSW 5.8 mph - N/A   Clear
4:55 PM 46.9 °F - 34.9 °F 63% 30.36 in 10.0 mi SSW 4.6 mph - N/A   Clear
5:15 PM 46.4 °F 44.3 °F 35.1 °F 65% 30.36 in 10.0 mi SSW 4.6 mph - N/A   Clear
5:35 PM 45.9 °F 42.3 °F 34.7 °F 65% 30.37 in 10.0 mi SSW 6.9 mph - N/A   Clear
5:55 PM 45.5 °F 44.2 °F 34.7 °F 66% 30.37 in 10.0 mi SW 3.5 mph - N/A   Clear
6:15 PM 43.9 °F 42.3 °F 33.6 °F 67% 30.38 in 10.0 mi SW 3.5 mph - N/A   Clear
6:35 PM 42.8 °F 41.1 °F 33.8 °F 70% 30.38 in 10.0 mi SSW 3.5 mph - N/A   Clear
6:55 PM 44.8 °F 43.3 °F 35.1 °F 69% 30.38 in 10.0 mi South 3.5 mph - N/A   Clear
7:15 PM 44.6 °F - 34.7 °F 68% 30.37 in 10.0 mi Calm Calm - N/A   Clear
7:35 PM 37.0 °F 34.5 °F 30.7 °F 78% 30.37 in 10.0 mi SSW 3.5 mph - N/A   Clear
7:55 PM 38.5 °F 35.0 °F 32.0 °F 78% 30.37 in 10.0 mi SSW 4.6 mph - N/A   Clear
8:15 PM 40.6 °F 38.6 °F 34.2 °F 78% 30.37 in 10.0 mi South 3.5 mph - N/A   Clear
8:35 PM 40.5 °F - 33.6 °F 77% 30.36 in 10.0 mi Calm Calm - N/A   Clear
8:55 PM 37.9 °F - 32.2 °F 80% 30.36 in 10.0 mi Calm Calm - N/A   Clear
9:15 PM 38.1 °F 34.6 °F 32.7 °F 81% 30.36 in 10.0 mi South 4.6 mph - N/A   Clear
9:35 PM 37.6 °F 33.1 °F 32.4 °F 81% 30.36 in 10.0 mi South 5.8 mph - N/A   Clear
9:55 PM 40.5 °F 37.3 °F 33.8 °F 77% 30.35 in 10.0 mi South 4.6 mph - N/A   Clear
10:15 PM 40.1 °F 36.1 °F 32.9 °F 75% 30.36 in 10.0 mi South 5.8 mph - N/A   Clear
10:35 PM 39.9 °F 36.7 °F 32.7 °F 75% 30.35 in 10.0 mi South 4.6 mph - N/A   Clear
10:55 PM 38.5 °F - 31.8 °F 77% 30.35 in 10.0 mi Calm Calm - N/A   Clear
11:15 PM 32.0 °F - 27.0 °F 82% 30.34 in 10.0 mi Calm Calm - N/A   Clear
11:35 PM 32.0 °F - 27.5 °F 83% 30.34 in 7.0 mi Calm Calm - N/A   Clear
11:55 PM 31.8 °F - 27.7 °F 85% 30.34 in 5.0 mi Calm Calm - N/A   Clear